M I D A S
Marine Information and Data Acquisition System
Tripno 293 of the Zeeleeuw from 2002-07-05 05:22:39 to 2002-07-05 12:30:10
Back to CruiseResearch ActivitiesStationsMapUnderway DataData graphs

EquipmentUnitsComment
TimeDGPSUTC
LatitudeDGPSDM.mWGS84
LongitudeDGPSDM.mWGS84
TemperatureSBE03/SBE38deg celciusITS90
ConductivitySBE21S/mITS90
SalinitySBE21 Practical Salinity Units
ChlorophylAChelsea fluorimeterg/lCalibrated in Aceton
Missing or incorrect values are displayed as -999
Sea surface data collected by the RV Zeeleeuw from 2002-07-05 05:22:39 to 2002-07-05 12:30:10
Time Latitude Longitude Temperature Conductivity Salinity ChlorophylA
2002-07-05 05:23:45 51°14.354 2°55.076 -999 -999 -999  
2002-07-05 05:24:44 51°14.455 2°54.831 -999 -999 -999  
2002-07-05 05:25:43 51°14.434 2°54.528 -999 -999 -999  
2002-07-05 05:26:43 51°14.373 2°54.229 -999 -999 -999  
2002-07-05 05:27:43 51°14.28 2°53.953 -999 -999 -999  
2002-07-05 05:28:43 51°14.187 2°53.675 -999 -999 -999  
2002-07-05 05:29:43 51°14.097 2°53.393 -999 -999 -999  
2002-07-05 05:30:43 51°14.007 2°53.106 -999 -999 -999  
2002-07-05 05:31:44 51°13.907 2°52.785 -999 -999 -999  
2002-07-05 05:32:43 51°13.803 2°52.473 -999 -999 -999  
2002-07-05 05:33:43 51°13.696 2°52.155 -999 -999 -999  
2002-07-05 05:34:43 51°13.59 2°51.837 -999 -999 -999  
2002-07-05 05:35:43 51°13.48 2°51.522 -999 -999 -999  
2002-07-05 05:36:43 51°13.37 2°51.206 -999 -999 -999  
2002-07-05 05:37:44 51°13.261 2°50.884 -999 -999 -999  
2002-07-05 05:38:44 51°13.152 2°50.569 -999 -999 -999  
2002-07-05 05:39:43 51°13.046 2°50.261 -999 -999 -999  
2002-07-05 05:40:43 51°12.94 2°49.948 -999 -999 -999  
2002-07-05 05:41:44 51°12.83 2°49.631 -999 -999 -999  
2002-07-05 05:42:44 51°12.722 2°49.319 -999 -999 -999  
2002-07-05 05:43:44 51°12.616 2°49.006 -999 -999 -999  
2002-07-05 05:44:44 51°12.509 2°48.693 -999 -999 -999  
2002-07-05 05:45:43 51°12.403 2°48.388 -999 -999 -999  
2002-07-05 05:46:43 51°12.298 2°48.076 -999 -999 -999  
2002-07-05 05:47:43 51°12.191 2°47.766 -999 -999 -999  
2002-07-05 05:48:44 51°12.08 2°47.454 -999 -999 -999  
2002-07-05 05:49:43 51°11.977 2°47.147 -999 -999 -999  
2002-07-05 05:50:43 51°11.876 2°46.833 -999 -999 -999  
2002-07-05 05:51:44 51°11.778 2°46.51 -999 -999 -999  
2002-07-05 05:52:44 51°11.689 2°46.187 -999 -999 -999  
2002-07-05 05:53:43 51°11.603 2°45.869 -999 -999 -999  
2002-07-05 05:54:43 51°11.516 2°45.545 -999 -999 -999  
2002-07-05 05:55:43 51°11.429 2°45.221 -999 -999 -999  
2002-07-05 05:56:43 51°11.341 2°44.899 -999 -999 -999  
2002-07-05 05:57:43 51°11.259 2°44.574 -999 -999 -999  
2002-07-05 05:58:43 51°11.18 2°44.248 -999 -999 -999  
2002-07-05 05:59:44 51°11.099 2°43.918 -999 -999 -999  
2002-07-05 06:00:44 51°11.019 2°43.593 -999 -999 -999  
2002-07-05 06:01:43 51°10.941 2°43.276 -999 -999 -999  
2002-07-05 06:02:43 51°10.86 2°42.954 -999 -999 -999  
2002-07-05 06:03:43 51°10.782 2°42.63 -999 -999 -999  
2002-07-05 06:04:43 51°10.714 2°42.302 -999 -999 -999  
2002-07-05 06:05:43 51°10.646 2°41.973 -999 -999 -999  
2002-07-05 06:06:43 51°10.577 2°41.646 -999 -999 -999  
2002-07-05 06:07:43 51°10.508 2°41.319 -999 -999 -999  
2002-07-05 06:08:42 51°10.44 2°40.997 -999 -999 -999  
2002-07-05 06:09:43 51°10.371 2°40.665 -999 -999 -999  
2002-07-05 06:10:43 51°10.302 2°40.341 -999 -999 -999  
2002-07-05 06:11:43 51°10.223 2°40.025 -999 -999 -999  
2002-07-05 06:12:43 51°10.145 2°39.707 -999 -999 -999  
2002-07-05 06:13:43 51°10.065 2°39.39 -999 -999 -999  
2002-07-05 06:14:43 51°9.985 2°39.073 -999 -999 -999  
2002-07-05 06:15:42 51°9.907 2°38.76 -999 -999 -999  
2002-07-05 06:16:43 51°9.826 2°38.437 -999 -999 -999  
2002-07-05 06:17:43 51°9.745 2°38.118 -999 -999 -999  
2002-07-05 06:18:43 51°9.663 2°37.801 -999 -999 -999  
2002-07-05 06:19:43 51°9.58 2°37.484 -999 -999 -999  
2002-07-05 06:20:43 51°9.497 2°37.168 -999 -999 -999  
2002-07-05 06:21:43 51°9.414 2°36.854 -999 -999 -999  
2002-07-05 06:22:44 51°9.34 2°36.57 -999 -999 -999  
2002-07-05 06:23:43 51°9.31 2°36.36 -999 -999 -999  
2002-07-05 06:24:43 51°9.303 2°36.234 -999 -999 -999  
2002-07-05 06:25:43 51°9.291 2°36.201 -999 -999 -999  
2002-07-05 06:26:43 51°9.282 2°36.193 -999 -999 -999  
2002-07-05 06:27:43 51°9.28 2°36.197 -999 -999 -999  
2002-07-05 06:28:44 51°9.291 2°36.224 -999 -999 -999  
2002-07-05 06:29:43 51°9.309 2°36.265 -999 -999 -999  
2002-07-05 06:30:43 51°9.318 2°36.279 -999 -999 -999  
2002-07-05 06:31:43 51°9.317 2°36.254 -999 -999 -999  
2002-07-05 06:32:43 51°9.314 2°36.24 -999 -999 -999  
2002-07-05 06:33:43 51°9.314 2°36.237 -999 -999 -999  
2002-07-05 06:34:43 51°9.315 2°36.243 -999 -999 -999  
2002-07-05 06:35:43 51°9.317 2°36.253 -999 -999 -999  
2002-07-05 06:36:43 51°9.306 2°36.243 -999 -999 -999  
2002-07-05 06:37:43 51°9.299 2°36.217 -999 -999 -999  
2002-07-05 06:38:43 51°9.303 2°36.199 -999 -999 -999  
2002-07-05 06:39:43 51°9.313 2°36.19 -999 -999 -999  
2002-07-05 06:40:43 51°9.324 2°36.189 -999 -999 -999  
2002-07-05 06:41:43 51°9.335 2°36.205 -999 -999 -999  
2002-07-05 06:42:43 51°9.34 2°36.207 -999 -999 -999  
2002-07-05 06:43:44 51°9.328 2°36.212 -999 -999 -999  
2002-07-05 06:44:43 51°9.305 2°36.227 -999 -999 -999  
2002-07-05 06:45:43 51°9.289 2°36.264 -999 -999 -999  
2002-07-05 06:46:44 51°9.31 2°36.291 -999 -999 -999  
2002-07-05 06:47:44 51°9.315 2°36.346 -999 -999 -999  
2002-07-05 06:48:43 51°9.372 2°36.531 -999 -999 -999  
2002-07-05 06:49:43 51°9.49 2°36.782 -999 -999 -999  
2002-07-05 06:50:43 51°9.624 2°37.115 -999 -999 -999  
2002-07-05 06:51:43 51°9.748 2°37.465 -999 -999 -999  
2002-07-05 06:52:43 51°9.864 2°37.823 -999 -999 -999  
2002-07-05 06:53:42 51°9.975 2°38.18 -999 -999 -999  
2002-07-05 06:54:44 51°10.088 2°38.553 -999 -999 -999  
2002-07-05 06:55:43 51°10.195 2°38.91 -999 -999 -999  
2002-07-05 06:56:44 51°10.307 2°39.283 -999 -999 -999  
2002-07-05 06:57:43 51°10.414 2°39.643 -999 -999 -999  
2002-07-05 06:58:43 51°10.523 2°40.009 -999 -999 -999  
2002-07-05 06:59:43 51°10.631 2°40.377 -999 -999 -999  
2002-07-05 07:00:43 51°10.74 2°40.746 -999 -999 -999  
2002-07-05 07:01:44 51°10.851 2°41.122 -999 -999 -999  
2002-07-05 07:02:43 51°10.96 2°41.489 -999 -999 -999  
2002-07-05 07:03:44 51°11.055 2°41.817 -999 -999 -999  
2002-07-05 07:04:43 51°11.122 2°42.003 -999 -999 -999  
2002-07-05 07:05:43 51°11.165 2°42.142 -999 -999 -999  
2002-07-05 07:06:43 51°11.106 2°42.254 -999 -999 -999  
2002-07-05 07:07:43 51°11.068 2°42.202 -999 -999 -999  
2002-07-05 07:08:44 51°11.089 2°42.152 -999 -999 -999  
2002-07-05 07:09:43 51°11.103 2°42.121 -999 -999 -999  
2002-07-05 07:10:43 51°11.108 2°42.111 -999 -999 -999  
2002-07-05 07:11:44 51°11.107 2°42.107 -999 -999 -999  
2002-07-05 07:12:44 51°11.098 2°42.105 -999 -999 -999  
2002-07-05 07:13:43 51°11.096 2°42.09 -999 -999 -999  
2002-07-05 07:14:43 51°11.095 2°42.08 -999 -999 -999  
2002-07-05 07:15:44 51°11.094 2°42.077 -999 -999 -999  
2002-07-05 07:16:44 51°11.097 2°42.073 -999 -999 -999  
2002-07-05 07:17:43 51°11.101 2°42.07 -999 -999 -999  
2002-07-05 07:18:44 51°11.102 2°42.076 -999 -999 -999  
2002-07-05 07:19:44 51°11.102 2°42.087 -999 -999 -999  
2002-07-05 07:20:44 51°11.101 2°42.102 -999 -999 -999  
2002-07-05 07:21:43 51°11.045 2°42.194 -999 -999 -999  
2002-07-05 07:22:44 51°11.1 2°42.521 -999 -999 -999  
2002-07-05 07:23:44 51°11.315 2°42.706 -999 -999 -999  
2002-07-05 07:24:44 51°11.539 2°42.873 -999 -999 -999  
2002-07-05 07:25:44 51°11.76 2°43.044 -999 -999 -999  
2002-07-05 07:26:44 51°11.981 2°43.216 -999 -999 -999  
2002-07-05 07:27:44 51°12.186 2°43.441 -999 -999 -999  
2002-07-05 07:28:44 51°12.376 2°43.703 -999 -999 -999  
2002-07-05 07:29:45 51°12.568 2°43.966 -999 -999 -999  
2002-07-05 07:30:45 51°12.752 2°44.237 -999 -999 -999  
2002-07-05 07:31:44 51°12.937 2°44.496 -999 -999 -999  
2002-07-05 07:32:44 51°13.123 2°44.763 -999 -999 -999  
2002-07-05 07:33:44 51°13.309 2°45.029 -999 -999 -999  
2002-07-05 07:34:44 51°13.493 2°45.293 -999 -999 -999  
2002-07-05 07:35:44 51°13.676 2°45.556 -999 -999 -999  
2002-07-05 07:36:44 51°13.858 2°45.822 -999 -999 -999  
2002-07-05 07:37:44 51°14.032 2°46.109 -999 -999 -999  
2002-07-05 07:38:44 51°14.169 2°46.441 -999 -999 -999  
2002-07-05 07:39:44 51°14.282 2°46.794 -999 -999 -999  
2002-07-05 07:40:44 51°14.384 2°47.152 -999 -999 -999  
2002-07-05 07:41:43 51°14.476 2°47.513 -999 -999 -999  
2002-07-05 07:42:44 51°14.575 2°47.88 -999 -999 -999  
2002-07-05 07:43:44 51°14.675 2°48.242 -999 -999 -999  
2002-07-05 07:44:45 51°14.778 2°48.614 -999 -999 -999  
2002-07-05 07:45:44 51°14.877 2°48.971 -999 -999 -999  
2002-07-05 07:46:44 51°14.971 2°49.339 -999 -999 -999  
2002-07-05 07:47:45 51°15.07 2°49.712 -999 -999 -999  
2002-07-05 07:48:44 51°15.16 2°50.077 -999 -999 -999  
2002-07-05 07:49:43 51°15.246 2°50.444 -999 -999 -999  
2002-07-05 07:50:43 51°15.329 2°50.816 -999 -999 -999  
2002-07-05 07:51:44 51°15.412 2°51.198 -999 -999 -999  
2002-07-05 07:52:44 51°15.497 2°51.575 -999 -999 -999  
2002-07-05 07:53:44 51°15.587 2°51.949 -999 -999 -999  
2002-07-05 07:54:45 51°15.676 2°52.328 -999 -999 -999  
2002-07-05 07:55:43 51°15.761 2°52.688 -999 -999 -999  
2002-07-05 07:56:42 51°15.847 2°53.053 -999 -999 -999  
2002-07-05 07:57:43 51°15.935 2°53.434 -999 -999 -999  
2002-07-05 07:58:45 51°16.025 2°53.823 -999 -999 -999  
2002-07-05 07:59:45 51°16.098 2°54.159 -999 -999 -999  
2002-07-05 08:00:45 51°16.118 2°54.343 -999 -999 -999  
2002-07-05 08:01:44 51°16.147 2°54.456 -999 -999 -999  
2002-07-05 08:02:44 51°16.183 2°54.535 -999 -999 -999  
2002-07-05 08:03:44 51°16.206 2°54.576 -999 -999 -999  
2002-07-05 08:04:45 51°16.216 2°54.586 -999 -999 -999  
2002-07-05 08:05:44 51°16.216 2°54.577 -999 -999 -999  
2002-07-05 08:06:46 51°16.203 2°54.547 -999 -999 -999  
2002-07-05 08:07:46 51°16.179 2°54.516 -999 -999 -999  
2002-07-05 08:08:44 51°16.152 2°54.487 -999 -999 -999  
2002-07-05 08:09:44 51°16.157 2°54.485 -999 -999 -999  
2002-07-05 08:10:45 51°16.187 2°54.37 -999 -999 -999  
2002-07-05 08:11:44 51°16.121 2°54.284 -999 -999 -999  
2002-07-05 08:12:45 51°16.119 2°54.258 -999 -999 -999  
2002-07-05 08:13:45 51°16.134 2°54.246 -999 -999 -999  
2002-07-05 08:14:45 51°16.15 2°54.24 -999 -999 -999  
2002-07-05 08:15:45 51°16.165 2°54.24 -999 -999 -999  
2002-07-05 08:16:45 51°16.181 2°54.245 -999 -999 -999  
2002-07-05 08:17:45 51°16.197 2°54.254 -999 -999 -999  
2002-07-05 08:18:45 51°16.215 2°54.265 -999 -999 -999  
2002-07-05 08:19:45 51°16.232 2°54.28 -999 -999 -999  
2002-07-05 08:20:45 51°16.249 2°54.298 -999 -999 -999  
2002-07-05 08:21:45 51°16.264 2°54.302 -999 -999 -999  
2002-07-05 08:22:45 51°16.269 2°54.297 -999 -999 -999  
2002-07-05 08:23:45 51°16.264 2°54.295 -999 -999 -999  
2002-07-05 08:24:44 51°16.26 2°54.296 -999 -999 -999  
2002-07-05 08:25:45 51°16.258 2°54.303 -999 -999 -999  
2002-07-05 08:26:45 51°16.262 2°54.311 -999 -999 -999  
2002-07-05 08:27:45 51°16.27 2°54.319 -999 -999 -999  
2002-07-05 08:28:45 51°16.277 2°54.322 -999 -999 -999  
2002-07-05 08:29:45 51°16.277 2°54.313 -999 -999 -999  
2002-07-05 08:30:45 51°16.269 2°54.299 -999 -999 -999  
2002-07-05 08:31:45 51°16.254 2°54.289 -999 -999 -999  
2002-07-05 08:32:45 51°16.24 2°54.286 -999 -999 -999  
2002-07-05 08:33:45 51°16.23 2°54.286 -999 -999 -999  
2002-07-05 08:34:45 51°16.23 2°54.292 -999 -999 -999  
2002-07-05 08:35:45 51°16.237 2°54.299 -999 -999 -999  
2002-07-05 08:36:45 51°16.248 2°54.309 -999 -999 -999  
2002-07-05 08:37:45 51°16.259 2°54.311 -999 -999 -999  
2002-07-05 08:38:45 51°16.263 2°54.301 -999 -999 -999  
2002-07-05 08:39:45 51°16.261 2°54.285 -999 -999 -999  
2002-07-05 08:40:45 51°16.25 2°54.268 -999 -999 -999  
2002-07-05 08:41:44 51°16.23 2°54.274 -999 -999 -999  
2002-07-05 08:42:45 51°16.215 2°54.297 -999 -999 -999  
2002-07-05 08:43:45 51°16.211 2°54.327 -999 -999 -999  
2002-07-05 08:44:44 51°16.223 2°54.357 -999 -999 -999  
2002-07-05 08:45:44 51°16.247 2°54.385 -999 -999 -999  
2002-07-05 08:46:44 51°16.27 2°54.408 -999 -999 -999  
2002-07-05 08:47:44 51°16.279 2°54.45 -999 -999 -999  
2002-07-05 08:48:44 51°16.274 2°54.494 -999 -999 -999  
2002-07-05 08:49:44 51°16.261 2°54.516 -999 -999 -999  
2002-07-05 08:50:44 51°16.255 2°54.507 -999 -999 -999  
2002-07-05 08:51:44 51°16.257 2°54.404 -999 -999 -999  
2002-07-05 08:52:45 51°16.251 2°54.13 -999 -999 -999  
2002-07-05 08:53:44 51°16.364 2°53.876 -999 -999 -999  
2002-07-05 08:54:44 51°16.521 2°53.622 -999 -999 -999  
2002-07-05 08:55:44 51°16.655 2°53.331 -999 -999 -999  
2002-07-05 08:56:45 51°16.778 2°53.023 -999 -999 -999  
2002-07-05 08:57:44 51°16.916 2°52.752 -999 -999 -999  
2002-07-05 08:58:44 51°17.112 2°52.548 -999 -999 -999  
2002-07-05 08:59:44 51°17.316 2°52.36 -999 -999 -999  
2002-07-05 09:00:44 51°17.537 2°52.211 -999 -999 -999  
2002-07-05 09:01:45 51°17.752 2°52.034 -999 -999 -999  
2002-07-05 09:02:45 51°17.953 2°51.834 -999 -999 -999  
2002-07-05 09:03:44 51°18.131 2°51.599 -999 -999 -999  
2002-07-05 09:04:45 51°18.291 2°51.336 -999 -999 -999  
2002-07-05 09:05:45 51°18.426 2°51.219 -999 -999 -999  
2002-07-05 09:06:44 51°18.508 2°51.142 -999 -999 -999  
2002-07-05 09:07:45 51°18.556 2°51.075 -999 -999 -999  
2002-07-05 09:08:45 51°18.571 2°51.03 -999 -999 -999  
2002-07-05 09:09:44 51°18.567 2°51.005 -999 -999 -999  
2002-07-05 09:10:45 51°18.543 2°51.015 -999 -999 -999  
2002-07-05 09:11:45 51°18.526 2°51.045 -999 -999 -999  
2002-07-05 09:12:45 51°18.514 2°51.062 -999 -999 -999  
2002-07-05 09:13:45 51°18.509 2°51.063 -999 -999 -999  
2002-07-05 09:14:45 51°18.508 2°51.055 -999 -999 -999  
2002-07-05 09:15:45 51°18.515 2°51.036 -999 -999 -999  
2002-07-05 09:16:45 51°18.525 2°51.014 -999 -999 -999  
2002-07-05 09:17:45 51°18.531 2°51.001 -999 -999 -999  
2002-07-05 09:18:45 51°18.531 2°50.997 -999 -999 -999  
2002-07-05 09:19:45 51°18.523 2°50.993 -999 -999 -999  
2002-07-05 09:20:44 51°18.509 2°50.994 -999 -999 -999  
2002-07-05 09:21:45 51°18.495 2°51.007 -999 -999 -999  
2002-07-05 09:22:45 51°18.477 2°51.01 -999 -999 -999  
2002-07-05 09:23:45 51°18.466 2°50.983 -999 -999 -999  
2002-07-05 09:24:45 51°18.471 2°50.935 -999 -999 -999  
2002-07-05 09:25:45 51°18.478 2°50.879 -999 -999 -999  
2002-07-05 09:26:45 51°18.485 2°50.82 -999 -999 -999  
2002-07-05 09:27:45 51°18.539 2°50.747 -999 -999 -999  
2002-07-05 09:28:45 51°18.618 2°50.844 -999 -999 -999  
2002-07-05 09:29:45 51°18.605 2°50.961 -999 -999 -999  
2002-07-05 09:30:45 51°18.564 2°51.014 -999 -999 -999  
2002-07-05 09:31:45 51°18.549 2°51.047 -999 -999 -999  
2002-07-05 09:32:45 51°18.561 2°51.077 -999 -999 -999  
2002-07-05 09:33:45 51°18.569 2°51.112 -999 -999 -999  
2002-07-05 09:34:45 51°18.58 2°51.143 -999 -999 -999  
2002-07-05 09:35:45 51°18.555 2°51.176 -999 -999 -999  
2002-07-05 09:36:45 51°18.443 2°50.997 -999 -999 -999  
2002-07-05 09:37:45 51°18.424 2°50.808 -999 -999 -999  
2002-07-05 09:38:45 51°18.517 2°50.716 -999 -999 -999  
2002-07-05 09:39:45 51°18.602 2°50.649 -999 -999 -999  
2002-07-05 09:40:45 51°18.681 2°50.588 -999 -999 -999  
2002-07-05 09:41:45 51°18.76 2°50.536 -999 -999 -999  
2002-07-05 09:42:45 51°18.833 2°50.476 -999 -999 -999  
2002-07-05 09:43:45 51°18.91 2°50.427 -999 -999 -999  
2002-07-05 09:44:45 51°18.991 2°50.408 -999 -999 -999  
2002-07-05 09:45:45 51°19.074 2°50.416 -999 -999 -999  
2002-07-05 09:46:45 51°19.155 2°50.404 -999 -999 -999  
2002-07-05 09:47:45 51°19.24 2°50.399 -999 -999 -999  
2002-07-05 09:48:45 51°19.324 2°50.381 -999 -999 -999  
2002-07-05 09:49:45 51°19.409 2°50.369 -999 -999 -999  
2002-07-05 09:50:45 51°19.491 2°50.337 -999 -999 -999  
2002-07-05 09:51:44 51°19.575 2°50.323 -999 -999 -999  
2002-07-05 09:52:45 51°19.664 2°50.311 -999 -999 -999  
2002-07-05 09:53:45 51°19.748 2°50.283 -999 -999 -999  
2002-07-05 09:54:45 51°19.833 2°50.278 -999 -999 -999  
2002-07-05 09:55:44 51°19.925 2°50.279 -999 -999 -999  
2002-07-05 09:56:44 51°20.016 2°50.299 -999 -999 -999  
2002-07-05 09:57:44 51°20.098 2°50.301 -999 -999 -999  
2002-07-05 09:58:45 51°20.172 2°50.313 -999 -999 -999  
2002-07-05 09:59:45 51°20.246 2°50.334 -999 -999 -999  
2002-07-05 10:00:45 51°20.319 2°50.354 -999 -999 -999  
2002-07-05 10:01:45 51°20.4 2°50.325 -999 -999 -999  
2002-07-05 10:02:44 51°20.437 2°50.269 -999 -999 -999  
2002-07-05 10:03:44 51°20.456 2°50.239 -999 -999 -999  
2002-07-05 10:04:44 51°20.473 2°50.224 -999 -999 -999  
2002-07-05 10:05:44 51°20.493 2°50.217 -999 -999 -999  
2002-07-05 10:06:44 51°20.501 2°50.187 -999 -999 -999  
2002-07-05 10:07:44 51°20.422 2°50.193 -999 -999 -999  
2002-07-05 10:08:44 51°20.348 2°50.317 -999 -999 -999  
2002-07-05 10:09:45 51°20.35 2°50.456 -999 -999 -999  
2002-07-05 10:10:44 51°20.442 2°50.482 -999 -999 -999  
2002-07-05 10:11:44 51°20.467 2°50.364 -999 -999 -999  
2002-07-05 10:12:44 51°20.443 2°50.303 -999 -999 -999  
2002-07-05 10:13:45 51°20.408 2°50.305 -999 -999 -999  
2002-07-05 10:14:45 51°20.387 2°50.35 -999 -999 -999  
2002-07-05 10:15:45 51°20.379 2°50.395 -999 -999 -999  
2002-07-05 10:16:45 51°20.379 2°50.432 -999 -999 -999  
2002-07-05 10:17:45 51°20.39 2°50.465 -999 -999 -999  
2002-07-05 10:18:45 51°20.425 2°50.464 -999 -999 -999  
2002-07-05 10:19:45 51°20.455 2°50.426 -999 -999 -999  
2002-07-05 10:20:46 51°20.466 2°50.365 -999 -999 -999  
2002-07-05 10:21:44 51°20.487 2°50.365 -999 -999 -999  
2002-07-05 10:22:44 51°20.55 2°50.326 -999 -999 -999  
2002-07-05 10:23:44 51°20.519 2°50.253 -999 -999 -999  
2002-07-05 10:24:44 51°20.444 2°50.327 -999 -999 -999  
2002-07-05 10:25:44 51°20.397 2°50.366 -999 -999 -999  
2002-07-05 10:26:45 51°20.382 2°50.385 -999 -999 -999  
2002-07-05 10:27:44 51°20.379 2°50.402 -999 -999 -999  
2002-07-05 10:28:44 51°20.376 2°50.402 -999 -999 -999  
2002-07-05 10:29:44 51°20.387 2°50.379 -999 -999 -999  
2002-07-05 10:30:44 51°20.406 2°50.358 -999 -999 -999  
2002-07-05 10:31:45 51°20.42 2°50.34 -999 -999 -999  
2002-07-05 10:32:44 51°20.409 2°50.317 -999 -999 -999  
2002-07-05 10:33:45 51°20.317 2°50.391 -999 -999 -999  
2002-07-05 10:34:44 51°20.177 2°50.521 -999 -999 -999  
2002-07-05 10:35:44 51°20.016 2°50.621 -999 -999 -999  
2002-07-05 10:36:44 51°19.855 2°50.716 -999 -999 -999  
2002-07-05 10:37:44 51°19.693 2°50.811 -999 -999 -999  
2002-07-05 10:38:44 51°19.53 2°50.905 -999 -999 -999  
2002-07-05 10:39:44 51°19.368 2°51.001 -999 -999 -999  
2002-07-05 10:40:44 51°19.198 2°51.099 -999 -999 -999  
2002-07-05 10:41:45 51°18.988 2°51.215 -999 -999 -999  
2002-07-05 10:42:45 51°18.779 2°51.335 -999 -999 -999  
2002-07-05 10:43:44 51°18.577 2°51.461 -999 -999 -999  
2002-07-05 10:44:44 51°18.371 2°51.59 -999 -999 -999  
2002-07-05 10:45:44 51°18.163 2°51.713 -999 -999 -999  
2002-07-05 10:46:44 51°17.959 2°51.837 -999 -999 -999  
2002-07-05 10:47:44 51°17.824 2°51.922 -999 -999 -999  
2002-07-05 10:48:44 51°17.748 2°51.981 -999 -999 -999  
2002-07-05 10:49:44 51°17.694 2°52.028 -999 -999 -999  
2002-07-05 10:50:44 51°17.649 2°52.074 -999 -999 -999  
2002-07-05 10:51:44 51°17.608 2°52.116 -999 -999 -999  
2002-07-05 10:52:44 51°17.509 2°52.191 -999 -999 -999  
2002-07-05 10:53:44 51°17.31 2°52.315 -999 -999 -999  
2002-07-05 10:54:44 51°17.103 2°52.439 -999 -999 -999  
2002-07-05 10:55:44 51°16.897 2°52.571 -999 -999 -999  
2002-07-05 10:56:44 51°16.695 2°52.724 -999 -999 -999  
2002-07-05 10:57:44 51°16.494 2°52.892 -999 -999 -999  
2002-07-05 10:58:44 51°16.297 2°53.069 -999 -999 -999  
2002-07-05 10:59:45 51°16.097 2°53.25 -999 -999 -999  
2002-07-05 11:00:44 51°15.902 2°53.418 -999 -999 -999  
2002-07-05 11:01:44 51°15.703 2°53.589 -999 -999 -999  
2002-07-05 11:02:44 51°15.515 2°53.787 -999 -999 -999  
2002-07-05 11:03:45 51°15.323 2°53.985 -999 -999 -999  
2002-07-05 11:04:45 51°15.161 2°54.147 -999 -999 -999  
2002-07-05 11:05:45 51°15.076 2°54.244 -999 -999 -999  
2002-07-05 11:06:44 51°15.029 2°54.33 -999 -999 -999  
2002-07-05 11:07:44 51°14.997 2°54.402 -999 -999 -999  
2002-07-05 11:08:45 51°14.978 2°54.456 -999 -999 -999  
2002-07-05 11:09:44 51°14.967 2°54.496 -999 -999 -999  
2002-07-05 11:10:45 51°14.962 2°54.532 -999 -999 -999  
2002-07-05 11:11:45 51°14.959 2°54.561 -999 -999 -999  
2002-07-05 11:12:45 51°14.958 2°54.586 -999 -999 -999  
2002-07-05 11:13:45 51°14.959 2°54.608 -999 -999 -999  
2002-07-05 11:14:45 51°14.961 2°54.628 -999 -999 -999  
2002-07-05 11:15:45 51°14.964 2°54.647 -999 -999 -999  
2002-07-05 11:16:44 51°14.968 2°54.664 -999 -999 -999  
2002-07-05 11:17:45 51°14.974 2°54.681 -999 -999 -999  
2002-07-05 11:18:45 51°14.981 2°54.699 -999 -999 -999  
2002-07-05 11:19:45 51°14.988 2°54.716 -999 -999 -999  
2002-07-05 11:20:45 51°14.996 2°54.732 -999 -999 -999  
2002-07-05 11:21:45 51°15.004 2°54.749 -999 -999 -999  
2002-07-05 11:22:45 51°15.011 2°54.764 -999 -999 -999  
2002-07-05 11:23:45 51°15.018 2°54.778 -999 -999 -999  
2002-07-05 11:24:44 51°15.026 2°54.792 -999 -999 -999  
2002-07-05 11:25:45 51°15.034 2°54.806 -999 -999 -999  
2002-07-05 11:26:45 51°15.043 2°54.82 -999 -999 -999  
2002-07-05 11:27:45 51°15.052 2°54.833 -999 -999 -999  
2002-07-05 11:28:45 51°15.06 2°54.847 -999 -999 -999  
2002-07-05 11:29:45 51°15.068 2°54.861 -999 -999 -999  
2002-07-05 11:30:45 51°15.075 2°54.876 -999 -999 -999  
2002-07-05 11:31:45 51°15.082 2°54.891 -999 -999 -999  
2002-07-05 11:32:44 51°15.087 2°54.905 -999 -999 -999  
2002-07-05 11:33:45 51°15.093 2°54.919 -999 -999 -999  
2002-07-05 11:34:45 51°15.1 2°54.932 -999 -999 -999  
2002-07-05 11:35:45 51°15.105 2°54.945 -999 -999 -999  
2002-07-05 11:36:45 51°15.111 2°54.957 -999 -999 -999  
2002-07-05 11:37:45 51°15.116 2°54.97 -999 -999 -999  
2002-07-05 11:38:44 51°15.121 2°54.982 -999 -999 -999  
2002-07-05 11:39:45 51°15.128 2°54.994 -999 -999 -999  
2002-07-05 11:40:45 51°15.134 2°55.006 -999 -999 -999  
2002-07-05 11:41:45 51°15.14 2°55.018 -999 -999 -999  
2002-07-05 11:42:45 51°15.137 2°55.038 -999 -999 -999  
2002-07-05 11:43:45 51°15.121 2°55.058 -999 -999 -999  
2002-07-05 11:44:45 51°15.098 2°55.065 -999 -999 -999  
2002-07-05 11:45:45 51°15.068 2°55.057 -999 -999 -999  
2002-07-05 11:46:44 51°15.035 2°55.049 -999 -999 -999  
2002-07-05 11:47:44 51°14.996 2°55.053 -999 -999 -999  
2002-07-05 11:48:45 51°14.952 2°55.054 -999 -999 -999  
2002-07-05 11:49:45 51°14.91 2°55.058 -999 -999 -999  
2002-07-05 11:50:44 51°14.868 2°55.07 -999 -999 -999  
2002-07-05 11:51:45 51°14.824 2°55.062 -999 -999 -999  
2002-07-05 11:52:44 51°14.79 2°55.046 -999 -999 -999  
2002-07-05 11:53:44 51°14.767 2°55.031 -999 -999 -999  
2002-07-05 11:54:44 51°14.751 2°55.016 -999 -999 -999  
2002-07-05 11:55:44 51°14.742 2°55.003 -999 -999 -999  
2002-07-05 11:56:45 51°14.741 2°54.99 -999 -999 -999  
2002-07-05 11:57:46 51°14.748 2°54.981 -999 -999 -999  
2002-07-05 11:58:45 51°14.756 2°54.974 -999 -999 -999  
2002-07-05 11:59:44 51°14.765 2°54.966 -999 -999 -999  
2002-07-05 12:00:45 51°14.775 2°54.958 -999 -999 -999  
2002-07-05 12:01:44 51°14.785 2°54.95 -999 -999 -999  
2002-07-05 12:02:45 51°14.795 2°54.941 -999 -999 -999  
2002-07-05 12:03:45 51°14.802 2°54.928 -999 -999 -999  
2002-07-05 12:04:44 51°14.809 2°54.915 -999 -999 -999  
2002-07-05 12:05:45 51°14.818 2°54.901 -999 -999 -999  
2002-07-05 12:06:45 51°14.825 2°54.886 -999 -999 -999  
2002-07-05 12:07:45 51°14.832 2°54.871 -999 -999 -999  
2002-07-05 12:08:44 51°14.84 2°54.856 -999 -999 -999  
2002-07-05 12:09:44 51°14.849 2°54.841 -999 -999 -999  
2002-07-05 12:10:45 51°14.859 2°54.826 -999 -999 -999  
2002-07-05 12:11:44 51°14.868 2°54.812 -999 -999 -999  
2002-07-05 12:12:44 51°14.877 2°54.797 -999 -999 -999  
2002-07-05 12:13:44 51°14.885 2°54.779 -999 -999 -999  
2002-07-05 12:14:44 51°14.893 2°54.763 -999 -999 -999  
2002-07-05 12:15:44 51°14.902 2°54.739 -999 -999 -999  
2002-07-05 12:16:45 51°14.871 2°54.633 -999 -999 -999  
2002-07-05 12:17:44 51°14.797 2°54.636 -999 -999 -999  
2002-07-05 12:18:45 51°14.764 2°54.68 -999 -999 -999  
2002-07-05 12:19:44 51°14.746 2°54.713 -999 -999 -999  
2002-07-05 12:20:45 51°14.732 2°54.736 -999 -999 -999  
2002-07-05 12:21:45 51°14.724 2°54.753 -999 -999 -999  
2002-07-05 12:22:45 51°14.721 2°54.763 -999 -999 -999  
2002-07-05 12:23:45 51°14.719 2°54.77 -999 -999 -999  
2002-07-05 12:24:44 51°14.716 2°54.774 -999 -999 -999  
2002-07-05 12:25:44 51°14.716 2°54.777 -999 -999 -999  
2002-07-05 12:26:44 51°14.716 2°54.782 -999 -999 -999  
2002-07-05 12:27:44 51°14.69 2°54.813 -999 -999 -999  
2002-07-05 12:28:44 51°14.565 2°54.926 -999 -999 -999  
2002-07-05 12:29:44 51°14.407 2°55.064 -999 -999 -999